User: anonymous   Login
Location: Unspecified
(0.0000°N, 0.0000°E)
Time: 06:28:05
(UTC+02:00)
Language:

NOSS 2-2 (E) - Orbit

View from above orbital plane
View from above orbital plane
View from above satellite
View from above satellite

Ground track
Ground track

The orbit data is extracted from the following two-line orbital elements,

1 21809U 91076E   15207.09024449 0.00000200  00000-0  86700-4 0    00
2 21809  63.3680  84.3025 0686000  15.0642 344.9357 13.41157863    02
Epoch (UTC): 26 July 2015 02:09:57
Eccentricity: 0.0686000
inclination: 63.3680°
perigee height: 591 km
apogee height: 1618 km
right ascension of ascending node: 84.3025°
argument of perigee: 15.0642°
revolutions per day: 13.41157863
mean anomaly at epoch: 344.9357°
orbit number at epoch: 0

The dashed part of the orbit path shows where the satellite is in the earth's shadow,  

DLR